User: anonymous   Login
Location: Unspecified
(0.0000°N, 0.0000°E)
Time: 06:19:29
(UTC+00:00)
Language:

AAUSAT CUBESAT 2 - Orbit

View from above orbital plane
View from above orbital plane
View from above satellite
View from above satellite

Ground track
Ground track

The orbit data is extracted from the following two-line orbital elements,

1 32788U 08021F   18116.59501838 +.00000185 +00000-0 +22305-4 0  9995
2 32788 097.5262 145.2396 0012588 154.5568 205.6275 14.94300080542376
Epoch (UTC): 26 April 2018 14:16:49
Eccentricity: 0.0012588
inclination: 97.5262°
perigee height: 576 km
apogee height: 593 km
right ascension of ascending node: 145.2396°
argument of perigee: 154.5568°
revolutions per day: 14.94300080
mean anomaly at epoch: 205.6275°
orbit number at epoch: 54237

The dashed part of the orbit path shows where the satellite is in the earth's shadow,  

DLR